Time,TemperatureF,DewpointF,PressureIn,WindDirection,WindDirectionDegrees,WindSpeedMPH,WindSpeedGustMPH,Humidity,HourlyPrecipIn,Conditions,Clouds,dailyrainin,SoftwareType,DateUTC
2013-06-21 00:00:00,66.6,60.9,30.42,SSE,154,3.1,4.9,82,-99.99,,,0.00,VWS V14.01,2013-06-21 04:00:00,
2013-06-21 00:30:00,66.0,60.4,30.45,NE,55,0.0,5.8,82,-99.99,,,0.00,VWS V14.01,2013-06-21 04:30:00,
2013-06-21 01:00:00,66.2,60.9,30.42,NE,48,0.0,4.5,83,-99.99,,,0.00,VWS V14.01,2013-06-21 05:00:00,
2013-06-21 01:30:00,66.0,61.0,30.42,NE,36,0.0,4.5,84,-99.99,,,0.00,VWS V14.01,2013-06-21 05:30:00,
2013-06-21 02:00:00,66.0,61.0,30.42,NE,41,0.0,6.9,84,-99.99,,,0.00,VWS V14.01,2013-06-21 06:00:00,
2013-06-21 02:30:00,66.6,61.6,30.42,NNE,21,0.0,6.3,84,-99.99,,,0.00,VWS V14.01,2013-06-21 06:30:00,
2013-06-21 03:00:00,66.4,61.4,30.42,NNE,31,0.0,4.0,84,-99.99,,,0.00,VWS V14.01,2013-06-21 07:00:00,
2013-06-21 03:30:00,66.2,60.9,30.42,NE,39,0.0,4.0,83,-99.99,,,0.00,VWS V14.01,2013-06-21 07:30:00,
2013-06-21 04:00:00,66.4,61.4,30.42,NNE,16,0.0,3.6,84,-99.99,,,0.00,VWS V14.01,2013-06-21 08:00:00,
2013-06-21 04:30:00,66.6,61.6,30.42,ENE,66,0.0,4.9,84,-99.99,,,0.00,VWS V14.01,2013-06-21 08:30:00,
2013-06-21 05:00:00,66.6,61.2,30.42,NE,37,0.0,5.4,83,-99.99,,,0.00,VWS V14.01,2013-06-21 09:00:00,
2013-06-21 05:30:00,66.6,60.9,30.42,NE,40,0.0,6.7,82,-99.99,,,0.00,VWS V14.01,2013-06-21 09:30:00,
2013-06-21 06:00:00,66.4,60.7,30.42,SSE,154,0.0,3.6,82,-99.99,,,0.00,VWS V14.01,2013-06-21 10:00:00,
2013-06-21 06:30:00,65.7,59.7,30.42,ENE,61,0.0,4.9,81,-99.99,,,0.00,VWS V14.01,2013-06-21 10:30:00,
2013-06-21 07:00:00,65.7,60.0,30.45,NE,43,0.0,4.0,82,-99.99,,,0.00,VWS V14.01,2013-06-21 11:00:00,
2013-06-21 07:30:00,65.8,60.2,30.45,East,101,0.0,5.8,82,-99.99,,,0.00,VWS V14.01,2013-06-21 11:30:00,
2013-06-21 08:00:00,66.0,60.4,30.45,SW,236,0.0,3.6,82,-99.99,,,0.00,VWS V14.01,2013-06-21 12:00:00,
2013-06-21 08:30:00,66.0,60.4,30.45,NE,45,0.0,3.1,82,-99.99,,,0.00,VWS V14.01,2013-06-21 12:30:00,
2013-06-21 09:00:00,66.6,60.9,30.47,NE,52,0.0,4.0,82,-99.99,,,0.00,VWS V14.01,2013-06-21 13:00:00,
2013-06-21 09:30:00,67.3,61.6,30.47,NE,42,0.0,5.4,82,-99.99,,,0.00,VWS V14.01,2013-06-21 13:30:00,
2013-06-21 10:00:00,68.5,62.5,30.47,NNE,31,0.0,5.4,81,-99.99,,,0.00,VWS V14.01,2013-06-21 14:00:00,
2013-06-21 10:30:00,69.3,62.1,30.47,NE,38,0.0,3.1,78,-99.99,,,0.00,VWS V14.01,2013-06-21 14:30:00,
2013-06-21 11:00:00,70.5,62.2,30.47,SSW,211,0.0,3.6,75,-99.99,,,0.00,VWS V14.01,2013-06-21 15:00:00,
2013-06-21 11:30:00,73.0,63.1,30.47,SSE,153,0.0,4.9,71,-99.99,,,0.00,VWS V14.01,2013-06-21 15:30:00,
2013-06-21 12:00:00,74.3,59.5,30.47,SW,235,0.0,6.3,60,-99.99,,,0.00,VWS V14.01,2013-06-21 16:00:00,
2013-06-21 12:30:00,75.4,61.5,30.47,SSE,155,0.0,3.1,62,-99.99,,,0.00,VWS V14.01,2013-06-21 16:30:00,
2013-06-21 13:00:00,75.6,58.8,30.47,SW,219,0.0,0.0,56,-99.99,,,0.00,VWS V14.01,2013-06-21 17:00:00,
2013-06-21 14:30:00,73.4,61.8,30.47,ENE,61,0.0,3.1,67,-99.99,,,0.00,VWS V14.01,2013-06-21 18:30:00,
2013-06-21 15:00:00,75.6,64.7,30.45,ENE,60,0.0,0.0,69,-99.99,,,0.00,VWS V14.01,2013-06-21 19:00:00,
2013-06-21 15:30:00,75.4,61.5,30.45,NE,54,0.0,4.5,62,-99.99,,,0.00,VWS V14.01,2013-06-21 19:30:00,
2013-06-21 16:00:00,75.0,62.5,30.45,ENE,63,0.0,2.7,65,-99.99,,,0.00,VWS V14.01,2013-06-21 20:00:00,
2013-06-21 16:30:00,75.4,60.5,30.45,NE,44,0.0,2.7,60,-99.99,,,0.00,VWS V14.01,2013-06-21 20:30:00,
2013-06-21 17:00:00,74.5,61.5,30.45,NE,47,0.0,4.0,64,-99.99,,,0.00,VWS V14.01,2013-06-21 21:00:00,
2013-06-21 17:30:00,76.1,63.9,30.42,NE,48,0.0,0.0,66,-99.99,,,0.00,VWS V14.01,2013-06-21 21:30:00,
2013-06-21 18:00:00,80.2,58.2,30.42,ENE,66,0.0,2.7,47,-99.99,,,0.00,VWS V14.01,2013-06-21 22:00:00,
2013-06-21 18:30:00,80.6,59.7,30.42,NE,55,0.0,0.0,49,-99.99,,,0.00,VWS V14.01,2013-06-21 22:30:00,
2013-06-21 19:00:00,78.8,58.0,30.42,NE,51,0.0,0.0,49,-99.99,,,0.00,VWS V14.01,2013-06-21 23:00:00,
2013-06-21 19:30:00,76.3,57.4,30.42,NE,47,0.0,0.0,52,-99.99,,,0.00,VWS V14.01,2013-06-21 23:30:00,
2013-06-21 20:00:00,73.4,59.6,30.42,NE,46,0.0,0.0,62,-99.99,,,0.00,VWS V14.01,2013-06-22 00:00:00,
2013-06-21 20:30:00,71.8,59.8,30.39,South,182,0.0,0.0,66,-99.99,,,0.00,VWS V14.01,2013-06-22 00:30:00,
2013-06-21 21:00:00,70.3,59.7,30.39,NNE,32,0.0,0.0,69,-99.99,,,0.00,VWS V14.01,2013-06-22 01:00:00,
2013-06-21 21:30:00,69.1,58.9,30.42,NE,42,0.0,0.0,70,-99.99,,,0.00,VWS V14.01,2013-06-22 01:30:00,
2013-06-21 22:00:00,68.2,58.4,30.42,NE,42,0.0,0.0,71,-99.99,,,0.00,VWS V14.01,2013-06-22 02:00:00,
2013-06-21 23:00:00,67.5,58.1,30.45,ENE,62,0.0,0.0,72,-99.99,,,0.00,VWS V14.01,2013-06-22 03:00:00,
2013-06-21 23:30:00,66.9,58.0,30.45,ENE,58,0.0,0.0,73,-99.99,,,0.00,VWS V14.01,2013-06-22 03:30:00,